Home > Weather > Charleroi > Past weeks

Flag for Belgium Weather for the Past 2 Weeks in Charleroi, Belgium

Now
37 °F

Passing clouds.


Feels Like: 29 °F
Forecast: 38 / 44 °F
Wind: 14 mph from Southwest

Location: Charleroi / Gosselies

Current Time: Feb 9, 2016 at 10:39:37 PM

Latest Report: Feb 9, 2016 at 9:50 PM


Visibility: N/A

Pressure: 29.24 "Hg

Humidity: 87%

Dew point: 34 °F

Location of CharleroiLocation

Historic Weather in Charleroi — Graph

°F

Charleroi Temperature Yesterday

Maximum temperature yesterday: 48 °F (at 5:50 AM)
Minimum temperature yesterday: 43 °F (at 3:50 PM)
Average temperature yesterday: 46 °F

High & Low Weather Summary for the Past Weeks

 TemperatureHumidityPressure
High54 °F (Feb 6, 9:20 PM)100% (Jan 26, 8:20 AM)30.36 "Hg (Jan 26, 8:20 AM)
Low36 °F (Feb 4, 1:20 AM)54% (Feb 6, 9:20 PM)28.88 "Hg (Feb 9, 12:50 PM)
Average45 °F84%29.95 "Hg
* Reported Jan 25 9:20 PM — Feb 9 9:20 PM, Charleroi, Weather by CustomWeather, © 2016

Note: Actual official high and low records may vary slightly from our data, if they occured in-between our weather recording intervals... More about our weather records

Advertising

Charleroi Weather History for the Previous 24 Hours

 ConditionsComfort  
Time TempWeatherWind HumidityBarometerVisibility
9:20 PM
Tue, Feb 9
37 °FPassing clouds.15 mph87%29.24 "HgN/A
8:50 PM37 °FPassing clouds.16 mph93%29.21 "HgN/A
8:20 PM39 °FPartly cloudy.16 mph87%29.21 "HgN/A
7:50 PM39 °FPassing clouds.15 mph87%29.18 "HgN/A
7:20 PM39 °FPassing clouds.15 mph87%29.18 "HgN/A
6:50 PM39 °FPassing clouds.15 mph87%29.15 "HgN/A
6:20 PM37 °FSprinkles. Passing clouds.12 mph93%29.15 "HgN/A
5:50 PM37 °FSprinkles. Partly cloudy.13 mph93%29.12 "Hg6 mi
4:50 PM36 °FPartly sunny.9 mph93%29.06 "HgN/A
4:20 PM37 °FLight rain. Partly sunny.13 mph87%29.03 "Hg3 mi
3:50 PM37 °FLight rain. Broken clouds.15 mph93%28.97 "Hg3 mi
3:20 PM39 °FLight rain. Broken clouds.7 mph93%28.94 "Hg3 mi
2:50 PM41 °FLight rain. Broken clouds.8 mph93%28.91 "HgN/A
2:20 PM43 °FLight rain. Broken clouds.16 mph87%28.88 "HgN/A
1:50 PM50 °FLight rain. Partly sunny.23 mph82%28.88 "HgN/A
1:20 PM52 °FLight rain. Partly sunny.24 mph82%28.88 "HgN/A
12:50 PM50 °FLight rain. Partly sunny.24 mph88%28.88 "HgN/A
12:20 PM46 °FLight rain. Partly sunny.12 mph93%28.94 "Hg6 mi
11:20 AM41 °FLight rain. Broken clouds.12 mph93%29.03 "Hg2 mi
10:50 AM41 °FLight rain. Broken clouds.9 mph93%29.09 "Hg5 mi
10:20 AM41 °FLight rain. Partly sunny.10 mph93%29.15 "Hg5 mi
9:50 AM41 °FLight rain. Partly sunny.12 mph93%29.21 "Hg4 mi
8:50 AM43 °FLight rain. Broken clouds.12 mph87%29.30 "Hg4 mi
8:20 AM43 °FLight rain. Broken clouds.14 mph87%29.33 "HgN/A
7:50 AM43 °FLight rain. Passing clouds.14 mph81%29.36 "HgN/A
7:20 AM43 °FPassing clouds.16 mph81%29.39 "HgN/A
6:50 AM43 °FPassing clouds.16 mph81%29.42 "HgN/A
6:20 AM43 °FPassing clouds.18 mph76%29.45 "HgN/A
5:50 AM43 °FPassing clouds.17 mph76%29.47 "HgN/A
5:20 AM43 °FPassing clouds.24 mph76%29.47 "HgN/A
4:50 AM45 °FPassing clouds.22 mph71%29.47 "HgN/A
4:20 AM43 °FPassing clouds.22 mph76%29.50 "HgN/A
3:50 AM43 °FPassing clouds.21 mph76%29.50 "HgN/A
3:20 AM45 °FPassing clouds.22 mph71%29.50 "HgN/A
2:50 AM45 °FPassing clouds.22 mph71%29.53 "HgN/A
2:20 AM43 °FPassing clouds.23 mph76%29.53 "HgN/A
1:50 AM43 °FPassing clouds.23 mph76%29.53 "HgN/A
1:20 AM43 °FPassing clouds.23 mph76%29.53 "HgN/A
12:50 AM43 °FPassing clouds.25 mph76%29.53 "HgN/A
12:20 AM45 °FPassing clouds.25 mph71%29.53 "HgN/A
11:50 PM
Mon, Feb 8
45 °FPartly cloudy.28 mph71%29.50 "HgN/A
11:20 PM45 °FSprinkles. Partly cloudy.25 mph71%29.50 "HgN/A
10:50 PM45 °FPartly cloudy.28 mph71%29.50 "HgN/A
10:20 PM45 °FPartly cloudy.29 mph71%29.50 "HgN/A
Weather by CustomWeather, © 2016

See weather overviewHow to use our weather pages